Location: Vihti�l�
(61.3833°N, 23.0667°E)
Time: 04:45:19
(UTC+00:00)

Cosmos 968 Rocket - Pass Details

Date: 29 November 2020
Orbit: 741 x 770 km, 74.0° (Epoch: 19 January)

Event Time Altitude Azimuth Distance (km) Brightness Sun altitude
Exits shadow 04:01:58 31° 324° (NW) 1,302 4.3 -20.5°
Maximum altitude 04:02:10 31° 329° (NNW) 1,300 4.3 -20.5°
Drops below altitude 10° 04:06:47 10° 32° (NNE) 2,285 6.2 -19.9°
Sets 04:09:24 0° 43° (NE) 3,207 7.2 -19.6°
